Year,Month,Day,Hour,Minute,Value (Times are PST for windspeed in km/hr)
2017,04,06,00,00,0.90
2017,04,06,00,01,0.70
2017,04,06,00,02,0.00
2017,04,06,00,03,0.00
2017,04,06,00,04,2.60
2017,04,06,00,05,1.40
2017,04,06,00,06,1.90
2017,04,06,00,07,0.90
2017,04,06,00,08,1.90
2017,04,06,00,09,1.20
2017,04,06,00,10,2.60
2017,04,06,00,11,1.60
2017,04,06,00,12,2.40
2017,04,06,00,13,3.90
2017,04,06,00,14,3.20
2017,04,06,00,15,3.00
2017,04,06,00,16,3.80
2017,04,06,00,17,2.40
2017,04,06,00,18,2.40
2017,04,06,00,19,0.70
2017,04,06,00,20,1.40
2017,04,06,00,21,3.60
2017,04,06,00,22,1.90
2017,04,06,00,23,1.50
2017,04,06,00,24,2.30
2017,04,06,00,25,1.40
2017,04,06,00,26,1.70
2017,04,06,00,27,1.00
2017,04,06,00,28,1.60
2017,04,06,00,29,2.20
2017,04,06,00,30,2.40
2017,04,06,00,31,1.00
2017,04,06,00,32,0.80
2017,04,06,00,33,0.90
2017,04,06,00,34,0.20
2017,04,06,00,35,0.50
2017,04,06,00,36,1.10
2017,04,06,00,37,0.60
2017,04,06,00,38,0.40
2017,04,06,00,39,1.20
2017,04,06,00,40,0.20
2017,04,06,00,41,1.20
2017,04,06,00,42,0.60
2017,04,06,00,43,1.50
2017,04,06,00,44,1.30
2017,04,06,00,45,0.80
2017,04,06,00,46,1.30
2017,04,06,00,47,1.70
2017,04,06,00,48,1.30
2017,04,06,00,49,0.30
2017,04,06,00,50,0.20
2017,04,06,00,51,0.00
2017,04,06,00,52,0.00
2017,04,06,00,53,0.00
2017,04,06,00,54,0.90
2017,04,06,00,55,2.30
2017,04,06,00,56,1.30
2017,04,06,00,57,0.70
2017,04,06,00,58,1.90
2017,04,06,00,59,1.80
2017,04,06,01,00,3.20
2017,04,06,01,01,2.40
2017,04,06,01,02,2.00
2017,04,06,01,03,2.70
2017,04,06,01,04,1.60
2017,04,06,01,05,1.50
2017,04,06,01,06,1.40
2017,04,06,01,07,0.00
2017,04,06,01,08,1.10
2017,04,06,01,09,0.00
2017,04,06,01,10,0.00
2017,04,06,01,11,0.10
2017,04,06,01,12,0.00
2017,04,06,01,13,0.80
2017,04,06,01,14,0.60
2017,04,06,01,15,0.20
2017,04,06,01,16,0.60
2017,04,06,01,17,0.00
2017,04,06,01,18,0.00
2017,04,06,01,19,0.00
2017,04,06,01,20,0.00
2017,04,06,01,21,0.00
2017,04,06,01,22,0.00
2017,04,06,01,23,0.00
2017,04,06,01,24,0.30
2017,04,06,01,25,0.10
2017,04,06,01,26,0.00
2017,04,06,01,27,0.00
2017,04,06,01,28,0.00
2017,04,06,01,29,0.00
2017,04,06,01,30,0.00
2017,04,06,01,31,0.00
2017,04,06,01,32,0.00
2017,04,06,01,33,0.90
2017,04,06,01,34,0.20
2017,04,06,01,35,0.20
2017,04,06,01,36,0.40
2017,04,06,01,37,0.00
2017,04,06,01,38,0.00
2017,04,06,01,39,0.00
2017,04,06,01,40,0.00
2017,04,06,01,41,0.00
2017,04,06,01,42,0.00
2017,04,06,01,43,0.00
2017,04,06,01,44,0.00
2017,04,06,01,45,0.00
2017,04,06,01,46,0.00
2017,04,06,01,47,0.00
2017,04,06,01,48,0.00
2017,04,06,01,49,0.00
2017,04,06,01,50,0.00
2017,04,06,01,51,0.00
2017,04,06,01,52,0.00
2017,04,06,01,53,1.00
2017,04,06,01,54,2.70
2017,04,06,01,55,2.30
2017,04,06,01,56,1.40
2017,04,06,01,57,0.20
2017,04,06,01,58,0.90
2017,04,06,01,59,2.70
2017,04,06,02,00,3.00
2017,04,06,02,01,2.30
2017,04,06,02,02,0.80
2017,04,06,02,03,0.90
2017,04,06,02,04,1.90
2017,04,06,02,05,2.60
2017,04,06,02,06,1.50
2017,04,06,02,07,1.40
2017,04,06,02,08,0.70
2017,04,06,02,09,0.00
2017,04,06,02,10,0.00
2017,04,06,02,11,1.90
2017,04,06,02,12,1.20
2017,04,06,02,13,0.10
2017,04,06,02,14,0.00
2017,04,06,02,15,0.00
2017,04,06,02,16,2.40
2017,04,06,02,17,2.00
2017,04,06,02,18,0.60
2017,04,06,02,19,0.70
2017,04,06,02,20,0.10
2017,04,06,02,21,0.60
2017,04,06,02,22,0.80
2017,04,06,02,23,2.60
2017,04,06,02,24,0.20
2017,04,06,02,25,0.20
2017,04,06,02,26,1.50
2017,04,06,02,27,1.40
2017,04,06,02,28,0.40
2017,04,06,02,29,0.00
2017,04,06,02,30,0.00
2017,04,06,02,31,0.10
2017,04,06,02,32,0.00
2017,04,06,02,33,0.00
2017,04,06,02,34,0.00
2017,04,06,02,35,0.00
2017,04,06,02,36,0.00
2017,04,06,02,37,0.00
2017,04,06,02,38,0.00
2017,04,06,02,39,1.40
2017,04,06,02,40,2.30
2017,04,06,02,41,2.00
2017,04,06,02,42,3.40
2017,04,06,02,43,1.20
2017,04,06,02,44,0.00
2017,04,06,02,45,0.00
2017,04,06,02,46,0.00
2017,04,06,02,47,0.60
2017,04,06,02,48,1.50
2017,04,06,02,49,3.00
2017,04,06,02,50,0.70
2017,04,06,02,51,0.00
2017,04,06,02,52,1.60
2017,04,06,02,53,4.10
2017,04,06,02,54,3.20
2017,04,06,02,55,0.40
2017,04,06,02,56,0.00
2017,04,06,02,57,1.00
2017,04,06,02,58,0.40
2017,04,06,02,59,2.30
2017,04,06,03,00,1.30
2017,04,06,03,01,0.40
2017,04,06,03,02,0.90
2017,04,06,03,03,1.50
2017,04,06,03,04,0.50
2017,04,06,03,05,0.80
2017,04,06,03,06,0.60
2017,04,06,03,07,0.20
2017,04,06,03,08,0.20
2017,04,06,03,09,0.40
2017,04,06,03,10,0.00
2017,04,06,03,11,0.00
2017,04,06,03,12,0.00
2017,04,06,03,13,0.00
2017,04,06,03,14,0.00
2017,04,06,03,15,0.00
2017,04,06,03,16,0.00
2017,04,06,03,17,0.60
2017,04,06,03,18,1.60
2017,04,06,03,19,1.60
2017,04,06,03,20,1.40
2017,04,06,03,21,1.40
2017,04,06,03,22,1.80
2017,04,06,03,23,1.80
2017,04,06,03,24,1.00
2017,04,06,03,25,1.70
2017,04,06,03,26,1.50
2017,04,06,03,27,1.00
2017,04,06,03,28,0.50
2017,04,06,03,29,0.90
2017,04,06,03,30,1.00
2017,04,06,03,31,0.20
2017,04,06,03,32,0.80
2017,04,06,03,33,0.80
2017,04,06,03,34,0.90
2017,04,06,03,35,1.10
2017,04,06,03,36,0.60
2017,04,06,03,37,0.80
2017,04,06,03,38,0.80
2017,04,06,03,39,0.20
2017,04,06,03,40,0.40
2017,04,06,03,41,1.80
2017,04,06,03,42,1.50
2017,04,06,03,43,1.80
2017,04,06,03,44,1.60
2017,04,06,03,45,0.60
2017,04,06,03,46,0.20
2017,04,06,03,47,0.00
2017,04,06,03,48,0.00
2017,04,06,03,49,0.00
2017,04,06,03,50,0.40
2017,04,06,03,51,0.80
2017,04,06,03,52,1.40
2017,04,06,03,53,0.80
2017,04,06,03,54,0.70
2017,04,06,03,55,0.40
2017,04,06,03,56,1.80
2017,04,06,03,57,0.60
2017,04,06,03,58,2.20
2017,04,06,03,59,1.40
2017,04,06,04,00,2.80
2017,04,06,04,01,2.10
2017,04,06,04,02,0.10
2017,04,06,04,03,1.00
2017,04,06,04,04,0.80
2017,04,06,04,05,1.90
2017,04,06,04,06,0.70
2017,04,06,04,07,0.90
2017,04,06,04,08,0.00
2017,04,06,04,09,0.40
2017,04,06,04,10,1.10
2017,04,06,04,11,0.10
2017,04,06,04,12,0.00
2017,04,06,04,13,0.00
2017,04,06,04,14,0.50
2017,04,06,04,15,0.80
2017,04,06,04,16,0.30
2017,04,06,04,17,1.90
2017,04,06,04,18,0.10
2017,04,06,04,19,0.20
2017,04,06,04,20,0.20
2017,04,06,04,21,0.00
2017,04,06,04,22,2.30
2017,04,06,04,23,1.50
2017,04,06,04,24,1.00
2017,04,06,04,25,2.40
2017,04,06,04,26,2.10
2017,04,06,04,27,2.50
2017,04,06,04,28,1.00
2017,04,06,04,29,0.40
2017,04,06,04,30,0.70
2017,04,06,04,31,1.10
2017,04,06,04,32,0.60
2017,04,06,04,33,0.00
2017,04,06,04,34,0.10
2017,04,06,04,35,1.10
2017,04,06,04,36,0.20
2017,04,06,04,37,1.10
2017,04,06,04,38,0.30
2017,04,06,04,39,0.10
2017,04,06,04,40,0.90
2017,04,06,04,41,1.20
2017,04,06,04,42,0.90
2017,04,06,04,43,1.50
2017,04,06,04,44,1.70
2017,04,06,04,45,1.10
2017,04,06,04,46,1.40
2017,04,06,04,47,0.50
2017,04,06,04,48,0.60
2017,04,06,04,49,1.70
2017,04,06,04,50,1.90
2017,04,06,04,51,2.50
2017,04,06,04,52,2.30
2017,04,06,04,53,1.50
2017,04,06,04,54,2.10
2017,04,06,04,55,2.00
2017,04,06,04,56,3.40
2017,04,06,04,57,3.90
2017,04,06,04,58,3.80
2017,04,06,04,59,1.90
2017,04,06,05,00,0.70
2017,04,06,05,01,0.80
2017,04,06,05,02,1.50
2017,04,06,05,03,2.20
2017,04,06,05,04,1.50
2017,04,06,05,05,1.80
2017,04,06,05,06,1.90
2017,04,06,05,07,2.00
2017,04,06,05,08,1.60
2017,04,06,05,09,0.90
2017,04,06,05,10,0.30
2017,04,06,05,11,0.00
2017,04,06,05,12,0.00
2017,04,06,05,13,0.00
2017,04,06,05,14,0.00
2017,04,06,05,15,0.00
2017,04,06,05,16,0.20
2017,04,06,05,17,0.00
2017,04,06,05,18,0.00
2017,04,06,05,19,0.30
2017,04,06,05,20,1.40
2017,04,06,05,21,1.50
2017,04,06,05,22,2.30
2017,04,06,05,23,1.30
2017,04,06,05,24,0.10
2017,04,06,05,25,0.00
2017,04,06,05,26,0.00
2017,04,06,05,27,0.00
2017,04,06,05,28,0.00
2017,04,06,05,29,0.00
2017,04,06,05,30,0.10
2017,04,06,05,31,0.80
2017,04,06,05,32,1.20
2017,04,06,05,33,0.60
2017,04,06,05,34,0.50
2017,04,06,05,35,0.40
2017,04,06,05,36,0.30
2017,04,06,05,37,0.00
2017,04,06,05,38,0.40
2017,04,06,05,39,1.00
2017,04,06,05,40,0.40
2017,04,06,05,41,0.10
2017,04,06,05,42,0.50
2017,04,06,05,43,0.00
2017,04,06,05,44,0.40
2017,04,06,05,45,0.50
2017,04,06,05,46,1.40
2017,04,06,05,47,0.10
2017,04,06,05,48,0.00
2017,04,06,05,49,0.00
2017,04,06,05,50,0.00
2017,04,06,05,51,0.00
2017,04,06,05,52,0.30
2017,04,06,05,53,0.60
2017,04,06,05,54,0.80
2017,04,06,05,55,0.80
2017,04,06,05,56,1.20
2017,04,06,05,57,1.10
2017,04,06,05,58,2.80
2017,04,06,05,59,0.90
2017,04,06,06,00,0.60
2017,04,06,06,01,2.00
2017,04,06,06,02,1.70
2017,04,06,06,03,1.30
2017,04,06,06,04,0.90
2017,04,06,06,05,1.10
2017,04,06,06,06,1.90
2017,04,06,06,07,1.50
2017,04,06,06,08,2.10
2017,04,06,06,09,2.50
2017,04,06,06,10,2.30
2017,04,06,06,11,1.30
2017,04,06,06,12,0.80
2017,04,06,06,13,0.70
2017,04,06,06,14,0.20
2017,04,06,06,15,1.10
2017,04,06,06,16,1.30
2017,04,06,06,17,1.20
2017,04,06,06,18,1.20
2017,04,06,06,19,1.60
2017,04,06,06,20,1.60
2017,04,06,06,21,1.80
2017,04,06,06,22,2.20
2017,04,06,06,23,2.10
2017,04,06,06,24,1.80
2017,04,06,06,25,2.20
2017,04,06,06,26,1.90
2017,04,06,06,27,2.70
2017,04,06,06,28,4.10
2017,04,06,06,29,3.00
2017,04,06,06,30,0.90
2017,04,06,06,31,0.30
2017,04,06,06,32,1.10
2017,04,06,06,33,0.40
2017,04,06,06,34,1.10
2017,04,06,06,35,2.80
2017,04,06,06,36,3.20
2017,04,06,06,37,1.80
2017,04,06,06,38,0.30
2017,04,06,06,39,1.20
2017,04,06,06,40,1.00
2017,04,06,06,41,0.40
2017,04,06,06,42,0.60
2017,04,06,06,43,0.70
2017,04,06,06,44,0.40
2017,04,06,06,45,1.40
2017,04,06,06,46,0.60
2017,04,06,06,47,0.50
2017,04,06,06,48,0.00
2017,04,06,06,49,0.00
2017,04,06,06,50,0.00
2017,04,06,06,51,0.70
2017,04,06,06,52,0.80
2017,04,06,06,53,0.20
2017,04,06,06,54,0.00
2017,04,06,06,55,0.00
2017,04,06,06,56,0.00
2017,04,06,06,57,0.00
2017,04,06,06,58,0.20
2017,04,06,06,59,1.20
2017,04,06,07,00,1.00
2017,04,06,07,01,0.90
2017,04,06,07,02,1.00
2017,04,06,07,03,0.00
2017,04,06,07,04,1.10
2017,04,06,07,05,1.40
2017,04,06,07,06,0.50
2017,04,06,07,07,0.10
2017,04,06,07,08,0.00
2017,04,06,07,09,0.00
2017,04,06,07,10,0.80
2017,04,06,07,11,1.30
2017,04,06,07,12,0.80
2017,04,06,07,13,0.50
2017,04,06,07,14,0.60
2017,04,06,07,15,1.00
2017,04,06,07,16,1.50
2017,04,06,07,17,0.60
2017,04,06,07,18,0.60
2017,04,06,07,19,1.30
2017,04,06,07,20,1.10
2017,04,06,07,21,0.90
2017,04,06,07,22,0.20
2017,04,06,07,23,0.00
2017,04,06,07,24,0.00
2017,04,06,07,25,0.00
2017,04,06,07,26,0.00
2017,04,06,07,27,0.70
2017,04,06,07,28,1.40
2017,04,06,07,29,2.20
2017,04,06,07,30,3.50
2017,04,06,07,31,3.00
2017,04,06,07,32,2.60
2017,04,06,07,33,1.70
2017,04,06,07,34,1.00
2017,04,06,07,35,1.00
2017,04,06,07,36,2.00
2017,04,06,07,37,2.10
2017,04,06,07,38,2.70
2017,04,06,07,39,2.00
2017,04,06,07,40,2.00
2017,04,06,07,41,1.90
2017,04,06,07,42,2.70
2017,04,06,07,43,2.10
2017,04,06,07,44,1.30
2017,04,06,07,45,3.30
2017,04,06,07,46,3.30
2017,04,06,07,47,2.60
2017,04,06,07,48,2.60
2017,04,06,07,49,2.30
2017,04,06,07,50,2.40
2017,04,06,07,51,1.90
2017,04,06,07,52,1.50
2017,04,06,07,53,2.60
2017,04,06,07,54,2.60
2017,04,06,07,55,0.70
2017,04,06,07,56,2.10
2017,04,06,07,57,3.10
2017,04,06,07,58,2.40
2017,04,06,07,59,1.70
2017,04,06,08,00,2.80
2017,04,06,08,01,2.40
2017,04,06,08,02,2.40
2017,04,06,08,03,2.20
2017,04,06,08,04,0.80
2017,04,06,08,05,0.60
2017,04,06,08,06,0.60
2017,04,06,08,07,0.50
2017,04,06,08,08,0.00
2017,04,06,08,09,0.60
2017,04,06,08,10,1.30
2017,04,06,08,11,2.10
2017,04,06,08,12,1.70
2017,04,06,08,13,1.70
2017,04,06,08,14,0.00
2017,04,06,08,15,0.00
2017,04,06,08,16,2.60
2017,04,06,08,17,3.90
2017,04,06,08,18,2.70
2017,04,06,08,19,1.00
2017,04,06,08,20,0.00
2017,04,06,08,21,0.00
2017,04,06,08,22,0.90
2017,04,06,08,23,1.50
2017,04,06,08,24,0.40
2017,04,06,08,25,0.20
2017,04,06,08,26,0.50
2017,04,06,08,27,0.20
2017,04,06,08,28,1.20
2017,04,06,08,29,0.50
2017,04,06,08,30,0.80
2017,04,06,08,31,0.10
2017,04,06,08,32,0.00
2017,04,06,08,33,0.00
2017,04,06,08,34,0.80
2017,04,06,08,35,0.50
2017,04,06,08,36,0.40
2017,04,06,08,37,0.90
2017,04,06,08,38,1.90
2017,04,06,08,39,1.20
2017,04,06,08,40,0.60
2017,04,06,08,41,0.50
2017,04,06,08,42,1.80
2017,04,06,08,43,1.90
2017,04,06,08,44,0.60
2017,04,06,08,45,0.80
2017,04,06,08,46,0.20
2017,04,06,08,47,1.40
2017,04,06,08,48,1.00
2017,04,06,08,49,0.80
2017,04,06,08,50,0.00
2017,04,06,08,51,0.00
2017,04,06,08,52,0.00
2017,04,06,08,53,0.00
2017,04,06,08,54,1.40
2017,04,06,08,55,1.40
2017,04,06,08,56,2.50
2017,04,06,08,57,1.10
2017,04,06,08,58,1.50
2017,04,06,08,59,3.00
2017,04,06,09,00,1.50
2017,04,06,09,01,2.50
2017,04,06,09,02,3.70
2017,04,06,09,03,2.50
2017,04,06,09,04,0.90
2017,04,06,09,05,0.00
2017,04,06,09,06,0.00
2017,04,06,09,07,0.90
2017,04,06,09,08,0.40
2017,04,06,09,09,1.70
2017,04,06,09,10,1.10
2017,04,06,09,11,0.80
2017,04,06,09,12,4.30
2017,04,06,09,13,3.70
2017,04,06,09,14,1.80
2017,04,06,09,15,1.50
2017,04,06,09,16,2.60
2017,04,06,09,17,3.30
2017,04,06,09,18,3.70
2017,04,06,09,19,2.80
2017,04,06,09,20,0.10
2017,04,06,09,21,0.00
2017,04,06,09,22,2.00
2017,04,06,09,23,2.70
2017,04,06,09,24,3.40
2017,04,06,09,25,3.10
2017,04,06,09,26,2.70
2017,04,06,09,27,7.10
2017,04,06,09,28,4.00
2017,04,06,09,29,5.50
2017,04,06,09,30,3.50
2017,04,06,09,31,2.80
2017,04,06,09,32,2.80
2017,04,06,09,33,4.90
2017,04,06,09,34,3.90
2017,04,06,09,35,2.00
2017,04,06,09,36,1.70
2017,04,06,09,37,4.30
2017,04,06,09,38,5.90
2017,04,06,09,39,2.40
2017,04,06,09,40,5.00
2017,04,06,09,41,3.70
2017,04,06,09,42,6.20
2017,04,06,09,43,6.70
2017,04,06,09,44,3.30
2017,04,06,09,45,3.00
2017,04,06,09,46,2.80
2017,04,06,09,47,1.60
2017,04,06,09,48,1.00
2017,04,06,09,49,2.10
2017,04,06,09,50,3.20
2017,04,06,09,51,4.00
2017,04,06,09,52,2.80
2017,04,06,09,53,0.90
2017,04,06,09,54,0.40
2017,04,06,09,55,5.40
2017,04,06,09,56,3.40
2017,04,06,09,57,5.40
2017,04,06,09,58,3.40
2017,04,06,09,59,2.90
2017,04,06,10,00,4.70
2017,04,06,10,01,5.10
2017,04,06,10,02,4.20
2017,04,06,10,03,3.00
2017,04,06,10,04,3.10
2017,04,06,10,05,10.80
2017,04,06,10,06,2.00
2017,04,06,10,07,3.40
2017,04,06,10,08,4.60
2017,04,06,10,09,2.50
2017,04,06,10,10,0.20
2017,04,06,10,11,2.50
2017,04,06,10,12,6.80
2017,04,06,10,13,5.10
2017,04,06,10,14,4.60
2017,04,06,10,15,4.30
2017,04,06,10,16,3.40
2017,04,06,10,17,2.10
2017,04,06,10,18,3.80
2017,04,06,10,19,5.00
2017,04,06,10,20,3.70
2017,04,06,10,21,1.70
2017,04,06,10,22,0.40
2017,04,06,10,23,1.10
2017,04,06,10,24,3.30
2017,04,06,10,25,2.10
2017,04,06,10,26,4.90
2017,04,06,10,27,6.40
2017,04,06,10,28,2.40
2017,04,06,10,29,1.00
2017,04,06,10,30,3.10
2017,04,06,10,31,2.20
2017,04,06,10,32,0.60
2017,04,06,10,33,1.80
2017,04,06,10,34,2.50
2017,04,06,10,35,6.30
2017,04,06,10,36,3.20
2017,04,06,10,37,1.30
2017,04,06,10,38,1.60
2017,04,06,10,39,4.20
2017,04,06,10,40,3.20
2017,04,06,10,41,3.60
2017,04,06,10,42,4.30
2017,04,06,10,43,3.20
2017,04,06,10,44,2.10
2017,04,06,10,45,6.40
2017,04,06,10,46,3.50
2017,04,06,10,47,1.80
2017,04,06,10,48,3.10
2017,04,06,10,49,1.70
2017,04,06,10,50,1.70
2017,04,06,10,51,0.70
2017,04,06,10,52,2.10
2017,04,06,10,53,2.00
2017,04,06,10,54,1.40
2017,04,06,10,55,1.20
2017,04,06,10,56,0.50
2017,04,06,10,57,4.00
2017,04,06,10,58,6.10
2017,04,06,10,59,2.00
2017,04,06,11,00,1.40
2017,04,06,11,01,2.10
2017,04,06,11,02,3.80
2017,04,06,11,03,3.30
2017,04,06,11,04,5.90
2017,04,06,11,05,5.20
2017,04,06,11,06,2.90
2017,04,06,11,07,1.20
2017,04,06,11,08,3.30
2017,04,06,11,09,2.80
2017,04,06,11,10,2.40
2017,04,06,11,11,2.70
2017,04,06,11,12,2.40
2017,04,06,11,13,1.20
2017,04,06,11,14,0.80
2017,04,06,11,15,0.90
2017,04,06,11,16,1.10
2017,04,06,11,17,2.30
2017,04,06,11,18,2.80
2017,04,06,11,19,1.90
2017,04,06,11,20,1.20
2017,04,06,11,21,1.40
2017,04,06,11,22,1.70
2017,04,06,11,23,1.10
2017,04,06,11,24,0.60
2017,04,06,11,25,2.30
2017,04,06,11,26,1.90
2017,04,06,11,27,1.90
2017,04,06,11,28,1.10
2017,04,06,11,29,0.30
2017,04,06,11,30,2.10
2017,04,06,11,31,2.20
2017,04,06,11,32,1.80
2017,04,06,11,33,1.80
2017,04,06,11,34,1.20
2017,04,06,11,35,1.90
2017,04,06,11,36,1.20
2017,04,06,11,37,1.80
2017,04,06,11,38,1.50
2017,04,06,11,39,0.20
2017,04,06,11,40,0.00
2017,04,06,11,41,0.00
2017,04,06,11,42,0.00
2017,04,06,11,43,0.60
2017,04,06,11,44,1.20
2017,04,06,11,45,1.60
2017,04,06,11,46,1.10
2017,04,06,11,47,1.80
2017,04,06,11,48,1.30
2017,04,06,11,49,4.30
2017,04,06,11,50,3.70
2017,04,06,11,51,3.80
2017,04,06,11,52,2.10
2017,04,06,11,53,0.70
2017,04,06,11,54,1.90
2017,04,06,11,55,3.70
2017,04,06,11,56,4.90
2017,04,06,11,57,2.10
2017,04,06,11,58,1.10
2017,04,06,11,59,0.70
2017,04,06,12,00,1.00
2017,04,06,12,01,4.10
2017,04,06,12,02,4.10
2017,04,06,12,03,3.00
2017,04,06,12,04,4.60
2017,04,06,12,05,4.50
2017,04,06,12,06,4.90
2017,04,06,12,07,2.30
2017,04,06,12,08,1.90
2017,04,06,12,09,1.40
2017,04,06,12,10,2.40
2017,04,06,12,11,6.10
2017,04,06,12,12,4.50
2017,04,06,12,13,5.40
2017,04,06,12,14,4.90
2017,04,06,12,15,3.60
2017,04,06,12,16,2.30
2017,04,06,12,17,8.60
2017,04,06,12,18,7.30
2017,04,06,12,19,5.70
2017,04,06,12,20,4.10
2017,04,06,12,21,4.10
2017,04,06,12,22,2.20
2017,04,06,12,23,0.60
2017,04,06,12,24,5.00
2017,04,06,12,25,3.50
2017,04,06,12,26,4.50
2017,04,06,12,27,4.20
2017,04,06,12,28,6.80
2017,04,06,12,29,5.30
2017,04,06,12,30,7.10
2017,04,06,12,31,7.00
2017,04,06,12,32,1.80
2017,04,06,12,33,5.10
2017,04,06,12,34,5.60
2017,04,06,12,35,5.00
2017,04,06,12,36,8.00
2017,04,06,12,37,13.00
2017,04,06,12,38,10.60
2017,04,06,12,39,2.70
2017,04,06,12,40,4.60
2017,04,06,12,41,5.50
2017,04,06,12,42,4.40
2017,04,06,12,43,2.20
2017,04,06,12,44,4.30
2017,04,06,12,45,4.10
2017,04,06,12,46,4.30
2017,04,06,12,47,4.70
2017,04,06,12,48,5.60
2017,04,06,12,49,3.00
2017,04,06,12,50,3.10
2017,04,06,12,51,3.30
2017,04,06,12,52,7.90
2017,04,06,12,53,4.40
2017,04,06,12,54,4.70
2017,04,06,12,55,4.10
2017,04,06,12,56,5.30
2017,04,06,12,57,4.20
2017,04,06,12,58,4.40
2017,04,06,12,59,3.20
2017,04,06,13,00,1.90
2017,04,06,13,01,3.30
2017,04,06,13,02,2.30
2017,04,06,13,03,4.60
2017,04,06,13,04,6.30
2017,04,06,13,05,5.00
2017,04,06,13,06,1.70
2017,04,06,13,07,2.80
2017,04,06,13,08,4.80
2017,04,06,13,09,7.70
2017,04,06,13,10,2.60
2017,04,06,13,11,3.70
2017,04,06,13,12,3.10
2017,04,06,13,13,5.10
2017,04,06,13,14,6.50
2017,04,06,13,15,6.10
2017,04,06,13,16,5.90
2017,04,06,13,17,3.50
2017,04,06,13,18,4.80
2017,04,06,13,19,4.50
2017,04,06,13,20,2.20
2017,04,06,13,21,4.40
2017,04,06,13,22,5.50
2017,04,06,13,23,4.70
2017,04,06,13,24,1.90
2017,04,06,13,25,2.90
2017,04,06,13,26,3.90
2017,04,06,13,27,6.10
2017,04,06,13,28,6.10
2017,04,06,13,29,7.40
2017,04,06,13,30,4.00
2017,04,06,13,31,8.60
2017,04,06,13,32,6.10
2017,04,06,13,33,8.40
2017,04,06,13,34,5.20
2017,04,06,13,35,3.70
2017,04,06,13,36,2.60
2017,04,06,13,37,1.10
2017,04,06,13,38,2.20
2017,04,06,13,39,6.00
2017,04,06,13,40,3.60
2017,04,06,13,41,3.80
2017,04,06,13,42,3.20
2017,04,06,13,43,5.50
2017,04,06,13,44,5.50
2017,04,06,13,45,2.30
2017,04,06,13,46,2.40
2017,04,06,13,47,3.60
2017,04,06,13,48,5.60
2017,04,06,13,49,7.00
2017,04,06,13,50,3.90
2017,04,06,13,51,2.70
2017,04,06,13,52,3.80
2017,04,06,13,53,3.40
2017,04,06,13,54,5.00
2017,04,06,13,55,1.40
2017,04,06,13,56,1.20
2017,04,06,13,57,1.90
2017,04,06,13,58,3.40
2017,04,06,13,59,7.30
2017,04,06,14,00,5.80
2017,04,06,14,01,3.50
2017,04,06,14,02,1.70
2017,04,06,14,03,1.50
2017,04,06,14,04,3.10
2017,04,06,14,05,3.40
2017,04,06,14,06,1.20
2017,04,06,14,07,0.60
2017,04,06,14,08,0.50
2017,04,06,14,09,1.10
2017,04,06,14,10,2.40
2017,04,06,14,11,3.20
2017,04,06,14,12,4.90
2017,04,06,14,13,1.90
2017,04,06,14,14,1.30
2017,04,06,14,15,3.60
2017,04,06,14,16,2.80
2017,04,06,14,17,4.10
2017,04,06,14,18,0.80
2017,04,06,14,19,2.00
2017,04,06,14,20,3.90
2017,04,06,14,21,5.30
2017,04,06,14,22,4.80
2017,04,06,14,23,4.30
2017,04,06,14,24,1.40
2017,04,06,14,25,2.20
2017,04,06,14,26,2.10
2017,04,06,14,27,1.20
2017,04,06,14,28,2.20
2017,04,06,14,29,2.40
2017,04,06,14,30,3.30
2017,04,06,14,31,4.10
2017,04,06,14,32,3.00
2017,04,06,14,33,4.40
2017,04,06,14,34,4.80
2017,04,06,14,35,2.50
2017,04,06,14,36,6.20
2017,04,06,14,37,6.80
2017,04,06,14,38,6.80
2017,04,06,14,39,5.60
2017,04,06,14,40,3.40
2017,04,06,14,41,4.40
2017,04,06,14,42,6.60
2017,04,06,14,43,4.50
2017,04,06,14,44,5.20
2017,04,06,14,45,3.10
2017,04,06,14,46,3.40
2017,04,06,14,47,6.90
2017,04,06,14,48,5.40
2017,04,06,14,49,2.80
2017,04,06,14,50,4.10
2017,04,06,14,51,4.30
2017,04,06,14,52,6.00
2017,04,06,14,53,5.70
2017,04,06,14,54,3.30
2017,04,06,14,55,2.80
2017,04,06,14,56,4.60
2017,04,06,14,57,3.40
2017,04,06,14,58,2.50
2017,04,06,14,59,1.60
2017,04,06,15,00,2.80
2017,04,06,15,01,2.30
2017,04,06,15,02,3.90
2017,04,06,15,03,3.00
2017,04,06,15,04,3.20
2017,04,06,15,05,2.50
2017,04,06,15,06,2.20
2017,04,06,15,07,1.20
2017,04,06,15,08,1.70
2017,04,06,15,09,0.90
2017,04,06,15,10,0.60
2017,04,06,15,11,5.30
2017,04,06,15,12,5.40
2017,04,06,15,13,4.80
2017,04,06,15,14,2.10
2017,04,06,15,15,3.20
2017,04,06,15,16,2.90
2017,04,06,15,17,2.20
2017,04,06,15,18,7.00
2017,04,06,15,19,5.80
2017,04,06,15,20,3.90
2017,04,06,15,21,2.30
2017,04,06,15,22,1.90
2017,04,06,15,23,1.50
2017,04,06,15,24,1.30
2017,04,06,15,25,0.80
2017,04,06,15,26,4.00
2017,04,06,15,27,6.70
2017,04,06,15,28,2.80
2017,04,06,15,29,4.50
2017,04,06,15,30,3.10
2017,04,06,15,31,3.40
2017,04,06,15,32,3.60
2017,04,06,15,33,2.50
2017,04,06,15,34,6.40
2017,04,06,15,35,4.20
2017,04,06,15,36,2.70
2017,04,06,15,37,5.80
2017,04,06,15,38,6.40
2017,04,06,15,39,7.20
2017,04,06,15,40,6.10
2017,04,06,15,41,5.30
2017,04,06,15,42,3.60
2017,04,06,15,43,2.00
2017,04,06,15,44,3.90
2017,04,06,15,45,3.90
2017,04,06,15,46,8.20
2017,04,06,15,47,6.30
2017,04,06,15,48,7.70
2017,04,06,15,49,12.00
2017,04,06,15,50,5.70
2017,04,06,15,51,5.40
2017,04,06,15,52,7.40
2017,04,06,15,53,5.10
2017,04,06,15,54,5.40
2017,04,06,15,55,2.40
2017,04,06,15,56,8.50
2017,04,06,15,57,4.10
2017,04,06,15,58,2.70
2017,04,06,15,59,2.20
2017,04,06,16,00,1.10
2017,04,06,16,01,4.40
2017,04,06,16,02,4.10
2017,04,06,16,03,7.70
2017,04,06,16,04,4.60
2017,04,06,16,05,6.90
2017,04,06,16,06,3.30
2017,04,06,16,07,5.90
2017,04,06,16,08,5.20
2017,04,06,16,09,6.30
2017,04,06,16,10,3.70
2017,04,06,16,11,7.10
2017,04,06,16,12,7.20
2017,04,06,16,13,2.40
2017,04,06,16,14,3.30
2017,04,06,16,15,4.90
2017,04,06,16,16,3.90
2017,04,06,16,17,5.10
2017,04,06,16,18,3.90
2017,04,06,16,19,4.70
2017,04,06,16,20,4.30
2017,04,06,16,21,8.10
2017,04,06,16,22,2.40
2017,04,06,16,23,6.50
2017,04,06,16,24,7.50
2017,04,06,16,25,9.30
2017,04,06,16,26,5.50
2017,04,06,16,27,7.50
2017,04,06,16,28,6.20
2017,04,06,16,29,5.20
2017,04,06,16,30,1.30
2017,04,06,16,31,3.50
2017,04,06,16,32,6.10
2017,04,06,16,33,5.00
2017,04,06,16,34,5.60
2017,04,06,16,35,2.80
2017,04,06,16,36,3.30
2017,04,06,16,37,5.80
2017,04,06,16,38,8.40
2017,04,06,16,39,5.10
2017,04,06,16,40,3.20
2017,04,06,16,41,1.20
2017,04,06,16,42,4.60
2017,04,06,16,43,1.80
2017,04,06,16,44,5.00
2017,04,06,16,45,3.50
2017,04,06,16,46,4.10
2017,04,06,16,47,4.60
2017,04,06,16,48,1.50
2017,04,06,16,49,0.90
2017,04,06,16,50,4.20
2017,04,06,16,51,4.40
2017,04,06,16,52,4.50
2017,04,06,16,53,3.30
2017,04,06,16,54,3.60
2017,04,06,16,55,4.20
2017,04,06,16,56,7.10
2017,04,06,16,57,5.90
2017,04,06,16,58,3.50
2017,04,06,16,59,5.60
2017,04,06,17,00,4.40
2017,04,06,17,01,4.70
2017,04,06,17,02,4.00
2017,04,06,17,03,2.40
2017,04,06,17,04,8.20
2017,04,06,17,05,6.00
2017,04,06,17,06,7.60
2017,04,06,17,07,6.20
2017,04,06,17,08,5.20
2017,04,06,17,09,3.40
2017,04,06,17,10,5.90
2017,04,06,17,11,2.80
2017,04,06,17,12,5.20
2017,04,06,17,13,4.40
2017,04,06,17,14,4.30
2017,04,06,17,15,3.90
2017,04,06,17,16,3.80
2017,04,06,17,17,2.50
2017,04,06,17,18,5.60
2017,04,06,17,19,4.20
2017,04,06,17,20,2.20
2017,04,06,17,21,5.20
2017,04,06,17,22,5.30
2017,04,06,17,23,3.40
2017,04,06,17,24,3.60
2017,04,06,17,25,6.50
2017,04,06,17,26,3.40
2017,04,06,17,27,5.60
2017,04,06,17,28,6.10
2017,04,06,17,29,4.00
2017,04,06,17,30,5.00
2017,04,06,17,31,6.80
2017,04,06,17,32,5.30
2017,04,06,17,33,2.90
2017,04,06,17,34,1.80
2017,04,06,17,35,0.80
2017,04,06,17,36,0.30
2017,04,06,17,37,3.00
2017,04,06,17,38,2.80
2017,04,06,17,39,1.60
2017,04,06,17,40,1.10
2017,04,06,17,41,2.30
2017,04,06,17,42,4.10
2017,04,06,17,43,2.70
2017,04,06,17,44,1.60
2017,04,06,17,45,1.80
2017,04,06,17,46,2.90
2017,04,06,17,47,4.10
2017,04,06,17,48,3.00
2017,04,06,17,49,2.70
2017,04,06,17,50,4.70
2017,04,06,17,51,5.60
2017,04,06,17,52,2.70
2017,04,06,17,53,0.70
2017,04,06,17,54,0.40
2017,04,06,17,55,1.40
2017,04,06,17,56,2.10
2017,04,06,17,57,1.50
2017,04,06,17,58,0.80
2017,04,06,17,59,2.50
2017,04,06,18,00,2.00
2017,04,06,18,01,1.50
2017,04,06,18,02,1.40
2017,04,06,18,03,2.40
2017,04,06,18,04,6.50
2017,04,06,18,05,2.60
2017,04,06,18,06,1.50